Location: Coupvray
(48.8929°N, 2.7967°E)
Time: 21:05:12
(UTC+00:00)

Lacrosse 5 - Pass Details

Date: 14 July 2020
Orbit: 717 x 720 km, 57.0° (Epoch: 11 August)

Event Time Altitude Azimuth Distance (km) Brightness Sun altitude
Exits shadow 01:49:49 - 264° (W) 2,607 4.4 -15.0°
Reaches altitude 10° 01:50:55 10° 268° (W) 2,201 4.1 -14.9°
Maximum altitude 01:55:46 44° 340° (NNW) 998 2.9 -14.5°
Drops below altitude 10° 02:00:37 10° 53° (NE) 2,207 5.5 -14.1°
Sets 02:03:06 0° 60° (ENE) 3,129 6.3 -13.9°
